Location: Byszew
(52.1813°N, 19.2693°E)
Time: 08:00:03
(UTC+00:00)

N. Korean satellite - Visible Passes

Search period start: 24 January 2022 00:00
Search period end: 03 February 2022 00:00
Orbit: 447 x 491 km, 97.3° (Epoch: 23 January)

Date Brightness Start Highest point End Pass type
(mag) Time Alt. Az. Time Alt. Az. Time Alt. Az.
24 Jan 8.0 03:37:14 10° NNE 03:40:40 37° E 03:41:53 28° SE visible
24 Jan 7.8 05:10:44 10° NNW 05:13:38 22° WNW 05:15:57 13° WSW visible
24 Jan 9.3 15:49:57 10° SSW 15:52:48 23° W 15:55:43 10° NW visible
25 Jan 9.3 03:08:37 10° NE 03:11:17 19° E 03:12:48 15° ESE visible
25 Jan 6.9 04:41:10 10° N 04:44:37 42° WNW 04:46:52 19° SW visible
26 Jan 6.5 04:11:50 10° NNE 04:15:29 89° WNW 04:17:47 22° SSW visible
26 Jan 8.6 05:46:49 10° NW 05:48:02 11° WNW 05:49:15 10° WNW visible
26 Jan 10.2 16:27:11 10° W 16:27:53 10° W 16:28:35 10° WNW visible
27 Jan 7.8 03:42:44 10° NNE 03:46:14 42° E 03:48:43 17° SSE visible
27 Jan 7.9 05:16:24 10° NNW 05:19:08 20° WNW 05:21:51 10° WSW visible
27 Jan 9.6 15:55:38 10° SW 15:58:21 21° W 16:01:07 10° NW visible
28 Jan 9.1 03:13:58 10° NE 03:16:50 21° E 03:19:39 10° SE visible
28 Jan 7.1 04:46:42 10° N 04:50:06 37° WNW 04:53:29 10° SW visible
29 Jan 9.9 02:46:13 10° ENE 02:47:19 11° E 02:48:24 10° ESE visible
29 Jan 6.4 04:17:18 10° N 04:20:57 78° WNW 04:24:35 10° SSW visible
29 Jan 8.6 05:53:01 10° NW 05:53:25 10° NW 05:53:50 10° WNW visible
30 Jan 7.5 03:48:06 10° NNE 03:51:40 49° E 03:55:12 10° S visible
30 Jan 8.1 05:21:57 10° NNW 05:24:30 18° WNW 05:27:01 10° WSW visible
30 Jan 9.6 16:01:15 10° SW 16:03:47 18° W 16:06:22 10° NW visible
31 Jan 8.9 03:19:13 10° NE 03:22:15 24° E 03:25:15 10° SSE visible
31 Jan 7.2 04:52:08 10° N 04:55:27 33° WNW 04:58:44 10° SW visible
01 Feb 9.9 02:51:04 10° ENE 02:52:42 13° E 02:54:19 10° ESE visible
01 Feb 6.4 04:22:38 10° N 04:26:17 68° WNW 04:29:53 10° SSW visible
02 Feb 7.2 03:53:22 10° NNE 03:56:59 56° E 04:00:32 10° S visible
02 Feb 8.2 05:27:25 10° NNW 05:29:44 16° WNW 05:32:02 10° W visible
02 Feb 9.7 16:06:46 10° SW 16:09:06 16° W 16:11:29 10° NW visible
